« Back
NWS Peachtree City, Ga » Text Product » GA Regional Weather Roundup


Printer-friendly Version
Current Version              Previous Versions:   1  2  3  4  5  6  7  8  9  

Regional Weather Roundup

332
ASUS42 KFFC 211503
RWRGA
WEATHER ROUNDUP FOR GEORGIA
NATIONAL WEATHER SERVICE PEACHTREE CITY GA
1100 AM EDT THU AUG 21 2014

NOTE: "FAIR" INDICATES FEW OR NO CLOUDS BELOW 12,000 FEET WITH NO
SIGNIFICANT WEATHER AND/OR OBSTRUCTIONS TO VISIBILITY.

* = USE WITH CAUTION. THE STATIONS MARKED WITH AN ASTERISK MAY NOT
REPORT WEATHER SUCH AS PRECIPITATION, FOG, OR THUNDER AND ARE NOT
QUALITY CONTROLLED BY NWS.

THE REMARK "TC" DENOTES TEMPERATURE READING IN DEGREES CELSIUS.

GAZ001>058-211600-
NORTH GEORGIA

CITY           SKY/WX    TMP DP  RH WIND       PRES   REMARKS
ATLANTA        PTSUNNY   80  70  71 W7        30.17R
ATHENS         SUNNY     85  68  56 NW3       30.14R
CHAMBLEE       SUNNY     83  67  58 VRB7      30.16S
PEACHTREE CITY SUNNY     83  71  67 NW5       30.17S
ROME           SUNNY     76  71  85 CALM      30.16S
WEST ATLANTA   SUNNY     81  69  67 W5        30.16S
GAINESVILLE    SUNNY     82  69  64 VRB7      30.19R
CARTERSVILLE   SUNNY     80  70  71 VRB3      30.17S


CITY           SKY/WX    TMP DP  RH WIND       PRES   REMARKS
DALTON*        SUNNY     73  73 100 CALM      30.17S
LAWRENCEVILLE* SUNNY     84  64  51 NW6       30.16R
MARIETTA       MOSUNNY   84  71  64 W9        30.17S
KENNESAW*      MOSUNNY   81  68  65 NW8       30.19R
$$

GAZ059>098-102>109-211600-
CENTRAL GEORGIA

CITY           SKY/WX    TMP DP  RH WIND       PRES   REMARKS
AUGUSTA-BUSH   SUNNY     85  69  58 CALM      30.10S
AUGUSTA-DANIEL SUNNY     87  67  51 VRB5      30.12S HX  90
COLUMBUS       SUNNY     84  73  69 CALM      30.14F HX  90
MACON          SUNNY     85  71  63 VRB5      30.14S HX  90
ROBINS AFB     SUNNY     86  72  62 VRB2      30.14R HX  92


CITY           SKY/WX    TMP DP  RH WIND       PRES   REMARKS
LAGRANGE*      SUNNY     87  78  75 NW3       30.17R HX  99
SYLVANIA*      SUNNY     87  75  68 NW3       30.11S HX  96
MILLEDGEVILLE* SUNNY     64  50  59 W3        30.13F
$$

GAZ099>101-110>166-211600-
SOUTH GEORGIA

CITY           SKY/WX    TMP DP  RH WIND       PRES   REMARKS
SAVANNAH       PTSUNNY   84  71  65 CALM      30.10S
VALDOSTA       SUNNY     90  70  51 CALM      30.14S HX  95
ALMA           MOSUNNY   86  72  62 W3        30.13S HX  92
ST SIMONS      SUNNY     87  69  54 SW6       30.11F HX  91
FT STEWART     MOSUNNY   84  69  60 W7        30.10S
ALBANY         SUNNY     88  73  61 VRB3      30.16S HX  95
HUNTER AFB     MOSUNNY   84  73  69 W6        30.09R HX  90
MOODY AFB      MOSUNNY   89  73  60 W6        30.13F HX  96
BRUNSWICK      SUNNY     88  68  51 W7        30.12S HX  91


CITY           SKY/WX    TMP DP  RH WIND       PRES   REMARKS
BAINBRIDGE*    SUNNY     90  77  66 CALM      30.15S HX 102
MOULTRIE*      SUNNY     86  73  66 NW3       30.16S HX  93
VIDALIA*         N/A     86  72  62 NW6       30.13R HX  92
WAYCROSS*      MOSUNNY   93  74  53 W7        30.12S HX 102
DOUGLAS*       SUNNY     88  68  51 W7        30.15S HX  91
$$



USA.gov is the U.S. government's official web portal to all federal, state and local government web resources and services.